| time (UTC) | temp C | wind direction | speed KPH | gust KPH | rain 1hr cm | rain 24hr cm | rain mn cm | humidity % | barometer mb |
| 20260504014419 | 10 | 206 | 1.6 | 1.6 | 0.00 | 0.00 | 0.00 | 52 | 1012.9 |
| 20260504013916 | 10 | 275 | 1.6 | 1.6 | 0.00 | 0.00 | 0.00 | 52 | 1012.9 |
| 20260504013415 | 10 | 321 | 1.6 | 1.6 | 0.00 | 0.00 | 0.00 | 52 | 1012.8 |
| 20260504012910 | 11 | 295 | 1.6 | 1.6 | 0.00 | 0.00 | 0.00 | 52 | 1012.7 |
| 20260504012408 | 11 | 319 | 0.0 | 1.6 | 0.00 | 0.00 | 0.00 | 52 | 1012.9 |
| 20260504011905 | 11 | 264 | 0.0 | 1.6 | 0.00 | 0.00 | 0.00 | 51 | 1012.8 |
| 20260504011403 | 11 | 283 | 1.6 | 1.6 | 0.00 | 0.00 | 0.00 | 51 | 1012.8 |
| 20260504010858 | 11 | 300 | 1.6 | 1.6 | 0.00 | 0.00 | 0.00 | 50 | 1012.8 |
| 20260504010354 | 11 | 196 | 1.6 | 3.2 | 0.00 | 0.00 | 0.00 | 50 | 1012.8 |
| 20260504005851 | 11 | 241 | 1.6 | 1.6 | 0.00 | 0.00 | 0.00 | 50 | 1012.9 |
| 20260504005348 | 11 | 271 | 1.6 | 3.2 | 0.00 | 0.00 | 0.00 | 50 | 1012.8 |
| 20260504004845 | 11 | 285 | 1.6 | 1.6 | 0.00 | 0.00 | 0.00 | 49 | 1013.0 |
| 20260504004343 | 12 | 208 | 3.2 | 3.2 | 0.00 | 0.00 | 0.00 | 48 | 1012.9 |
| 20260504003839 | 12 | 349 | 1.6 | 1.6 | 0.00 | 0.00 | 0.00 | 48 | 1012.6 |
| 20260504003336 | 12 | 307 | 1.6 | 1.6 | 0.00 | 0.00 | 0.00 | 47 | 1012.9 |
| 20260504002833 | 12 | 312 | 1.6 | 1.6 | 0.00 | 0.00 | 0.00 | 47 | 1012.7 |
| 20260504002330 | 12 | 122 | 1.6 | 1.6 | 0.00 | 0.00 | 0.00 | 46 | 1012.7 |
| 20260504001828 | 12 | 263 | 1.6 | 1.6 | 0.00 | 0.00 | 0.00 | 48 | 1012.6 |
| 20260504001325 | 12 | 347 | 1.6 | 3.2 | 0.00 | 0.00 | 0.00 | 47 | 1012.6 |
| 20260504000821 | 12 | 228 | 8.0 | 9.7 | 0.00 | 0.00 | 0.00 | 45 | 1012.9 |
| 20260504000318 | 12 | 253 | 3.2 | 4.8 | 0.00 | 0.00 | 0.00 | 47 | 1012.9 |
| 20260503235816 | 13 | 198 | 3.2 | 4.8 | 0.00 | 0.00 | 0.00 | 46 | 1012.8 |
| 20260503235314 | 13 | 180 | 6.4 | 9.7 | 0.00 | 0.00 | 0.00 | 46 | 1012.7 |
| 20260503234811 | 13 | 103 | 1.6 | 1.6 | 0.00 | 0.00 | 0.00 | 46 | 1012.8 |
| 20260503234309 | 13 | 223 | 4.8 | 8.0 | 0.00 | 0.00 | 0.00 | 46 | 1012.9 |
| 20260503233806 | 13 | 285 | 1.6 | 1.6 | 0.00 | 0.00 | 0.00 | 45 | 1013.0 |
| 20260503233302 | 13 | 257 | 3.2 | 3.2 | 0.00 | 0.00 | 0.00 | 45 | 1013.0 |
| 20260503232759 | 13 | 314 | 1.6 | 1.6 | 0.00 | 0.00 | 0.00 | 46 | 1012.9 |
| 20260503232256 | 13 | 255 | 3.2 | 4.8 | 0.00 | 0.00 | 0.00 | 44 | 1012.8 |
| 20260503231754 | 13 | 315 | 6.4 | 9.7 | 0.00 | 0.00 | 0.00 | 43 | 1012.7 |
| 20260503231251 | 13 | 163 | 4.8 | 4.8 | 0.00 | 0.00 | 0.00 | 44 | 1012.8 |
| 20260503230746 | 13 | 140 | 3.2 | 4.8 | 0.00 | 0.00 | 0.00 | 44 | 1012.8 |
| 20260503230243 | 13 | 229 | 3.2 | 3.2 | 0.00 | 0.00 | 0.00 | 43 | 1012.9 |
| 20260503225736 | 14 | 216 | 8.0 | 9.7 | 0.00 | 0.00 | 0.00 | 41 | 1012.7 |
| 20260503225235 | 14 | 289 | 0.0 | 1.6 | 0.00 | 0.00 | 0.00 | 43 | 1012.8 |
| 20260503224732 | 14 | 324 | 1.6 | 1.6 | 0.00 | 0.00 | 0.00 | 41 | 1012.7 |
| 20260503224230 | 14 | 323 | 1.6 | 3.2 | 0.00 | 0.00 | 0.00 | 42 | 1012.6 |
| 20260503223728 | 14 | 332 | 6.4 | 8.0 | 0.00 | 0.00 | 0.00 | 42 | 1012.6 |
| 20260503223225 | 13 | 209 | 4.8 | 8.0 | 0.00 | 0.00 | 0.00 | 42 | 1013.0 |
| 20260503222721 | 13 | 271 | 3.2 | 3.2 | 0.00 | 0.00 | 0.00 | 43 | 1013.3 |
| 20260503222219 | 13 | 301 | 6.4 | 9.7 | 0.00 | 0.00 | 0.00 | 41 | 1012.9 |
| 20260503221717 | 14 | 301 | 3.2 | 3.2 | 0.00 | 0.00 | 0.00 | 43 | 1012.9 |
| 20260503221215 | 14 | 241 | 4.8 | 4.8 | 0.00 | 0.00 | 0.00 | 42 | 1013.0 |
| 20260503220711 | 14 | 322 | 1.6 | 3.2 | 0.00 | 0.00 | 0.00 | 42 | 1013.0 |
| 20260503220208 | 15 | 242 | 3.2 | 4.8 | 0.00 | 0.00 | 0.00 | 38 | 1012.9 |
| 20260503215705 | 15 | 184 | 4.8 | 4.8 | 0.00 | 0.00 | 0.00 | 39 | 1012.9 |
| 20260503215202 | 14 | 234 | 6.4 | 9.7 | 0.00 | 0.00 | 0.00 | 40 | 1013.3 |
| 20260503214700 | 14 | 278 | 4.8 | 8.0 | 0.00 | 0.00 | 0.00 | 39 | 1012.9 |
| 20260503214155 | 14 | 156 | 4.8 | 4.8 | 0.00 | 0.00 | 0.00 | 40 | 1013.2 |
| 20260503213649 | 14 | 230 | 4.8 | 8.0 | 0.00 | 0.00 | 0.00 | 40 | 1012.9 |
| 20260503213146 | 15 | 204 | 8.0 | 12.9 | 0.00 | 0.00 | 0.00 | 38 | 1012.9 |
| 20260503212643 | 15 | 273 | 3.2 | 3.2 | 0.00 | 0.00 | 0.00 | 38 | 1012.8 |
| 20260503212141 | 15 | 262 | 4.8 | 4.8 | 0.00 | 0.00 | 0.00 | 38 | 1012.7 |
| 20260503211638 | 16 | 298 | 6.4 | 8.0 | 0.00 | 0.00 | 0.00 | 37 | 1012.8 |
| 20260503211133 | 15 | 187 | 6.4 | 8.0 | 0.00 | 0.00 | 0.00 | 36 | 1012.7 |
| 20260503210630 | 16 | 259 | 4.8 | 4.8 | 0.00 | 0.00 | 0.00 | 38 | 1012.8 |
| 20260503210127 | 16 | 336 | 1.6 | 3.2 | 0.00 | 0.00 | 0.00 | 35 | 1012.6 |
| 20260503205622 | 15 | 269 | 4.8 | 4.8 | 0.00 | 0.00 | 0.00 | 38 | 1012.6 |
| 20260503205119 | 15 | 196 | 3.2 | 3.2 | 0.00 | 0.00 | 0.00 | 38 | 1012.8 |
| 20260503204616 | 16 | 301 | 3.2 | 4.8 | 0.00 | 0.00 | 0.00 | 34 | 1013.0 |
| 20260503204113 | 15 | 162 | 6.4 | 8.0 | 0.00 | 0.00 | 0.00 | 38 | 1012.9 |
| 20260503203610 | 15 | 39 | 3.2 | 3.2 | 0.00 | 0.00 | 0.00 | 36 | 1012.8 |
| 20260503203108 | 16 | 273 | 4.8 | 8.0 | 0.00 | 0.00 | 0.00 | 38 | 1013.0 |
| 20260503202605 | 16 | 188 | 1.6 | 1.6 | 0.00 | 0.00 | 0.00 | 38 | 1012.7 |
| 20260503202103 | 15 | 163 | 4.8 | 4.8 | 0.00 | 0.00 | 0.00 | 37 | 1013.2 |
| 20260503201600 | 15 | 262 | 6.4 | 9.7 | 0.00 | 0.00 | 0.00 | 38 | 1013.3 |
| 20260503201058 | 15 | 296 | 6.4 | 8.0 | 0.00 | 0.00 | 0.00 | 39 | 1013.4 |
| 20260503200553 | 15 | 269 | 4.8 | 8.0 | 0.00 | 0.00 | 0.00 | 37 | 1013.4 |
| 20260503200050 | 15 | 291 | 4.8 | 4.8 | 0.00 | 0.00 | 0.00 | 38 | 1013.5 |
| 20260503195548 | 15 | 250 | 6.4 | 11.3 | 0.00 | 0.00 | 0.00 | 38 | 1013.7 |
| 20260503195044 | 15 | 125 | 3.2 | 4.8 | 0.00 | 0.00 | 0.00 | 38 | 1013.9 |
| 20260503194541 | 15 | 248 | 4.8 | 4.8 | 0.00 | 0.00 | 0.00 | 36 | 1013.7 |
| 20260503194041 | 15 | 209 | 3.2 | 3.2 | 0.00 | 0.00 | 0.00 | 36 | 1013.9 |
| 20260503193538 | 15 | 304 | 8.0 | 11.3 | 0.00 | 0.00 | 0.00 | 37 | 1014.1 |
| 20260503193033 | 15 | 314 | 4.8 | 4.8 | 0.00 | 0.00 | 0.00 | 38 | 1013.9 |
| 20260503192530 | 16 | 273 | 6.4 | 9.7 | 0.00 | 0.00 | 0.00 | 37 | 1014.3 |
| 20260503192026 | 16 | 288 | 4.8 | 4.8 | 0.00 | 0.00 | 0.00 | 39 | 1014.3 |
| 20260503191523 | 15 | 141 | 8.0 | 12.9 | 0.00 | 0.00 | 0.00 | 39 | 1014.2 |
| 20260503191019 | 14 | 228 | 3.2 | 4.8 | 0.00 | 0.00 | 0.00 | 39 | 1014.3 |
| 20260503190516 | 14 | 261 | 4.8 | 4.8 | 0.00 | 0.00 | 0.00 | 39 | 1014.5 |
| 20260503190014 | 15 | 202 | 3.2 | 8.0 | 0.00 | 0.00 | 0.00 | 41 | 1014.5 |
| 20260503185509 | 14 | 346 | 1.6 | 3.2 | 0.00 | 0.00 | 0.00 | 41 | 1014.5 |
| 20260503185004 | 15 | 257 | 4.8 | 4.8 | 0.00 | 0.00 | 0.00 | 41 | 1014.6 |
| 20260503184500 | 14 | 270 | 9.7 | 12.9 | 0.00 | 0.00 | 0.00 | 41 | 1014.6 |
| 20260503183956 | 14 | 317 | 4.8 | 8.0 | 0.00 | 0.00 | 0.00 | 41 | 1014.7 |
| 20260503183453 | 14 | 249 | 4.8 | 4.8 | 0.00 | 0.00 | 0.00 | 42 | 1015.0 |
| 20260503182950 | 13 | 253 | 8.0 | 11.3 | 0.00 | 0.00 | 0.00 | 42 | 1014.7 |
| 20260503182450 | 13 | 283 | 4.8 | 4.8 | 0.00 | 0.00 | 0.00 | 44 | 1014.8 |
| 20260503181946 | 15 | 212 | 11.3 | 14.5 | 0.00 | 0.00 | 0.00 | 41 | 1015.0 |
| 20260503181444 | 14 | 280 | 8.0 | 16.1 | 0.00 | 0.00 | 0.00 | 41 | 1014.9 |
| 20260503180939 | 14 | 334 | 6.4 | 8.0 | 0.00 | 0.00 | 0.00 | 42 | 1014.8 |
| 20260503180438 | 13 | 249 | 8.0 | 11.3 | 0.00 | 0.00 | 0.00 | 45 | 1015.0 |
| 20260503175934 | 13 | 214 | 4.8 | 4.8 | 0.00 | 0.00 | 0.00 | 42 | 1015.1 |
| 20260503175432 | 13 | 241 | 3.2 | 4.8 | 0.00 | 0.00 | 0.00 | 41 | 1015.0 |
| 20260503174928 | 13 | 262 | 6.4 | 9.7 | 0.00 | 0.00 | 0.00 | 41 | 1015.2 |
| 20260503174426 | 13 | 343 | 3.2 | 3.2 | 0.00 | 0.00 | 0.00 | 43 | 1015.1 |
| 20260503173926 | 13 | 256 | 8.0 | 9.7 | 0.00 | 0.00 | 0.00 | 42 | 1015.5 |
| 20260503173423 | 13 | 265 | 6.4 | 9.7 | 0.00 | 0.00 | 0.00 | 42 | 1015.3 |
| 20260503172920 | 13 | 281 | 1.6 | 3.2 | 0.00 | 0.00 | 0.00 | 45 | 1015.3 |
| 20260503172417 | 13 | 233 | 9.7 | 11.3 | 0.00 | 0.00 | 0.00 | 44 | 1015.5 |
| 20260503171913 | 13 | 168 | 4.8 | 4.8 | 0.00 | 0.00 | 0.00 | 43 | 1015.4 |
| 20260503171410 | 12 | 273 | 4.8 | 4.8 | 0.00 | 0.00 | 0.00 | 43 | 1015.5 |
| 20260503170908 | 12 | 204 | 3.2 | 4.8 | 0.00 | 0.00 | 0.00 | 45 | 1015.3 |
| 20260503170403 | 12 | 269 | 6.4 | 9.7 | 0.00 | 0.00 | 0.00 | 44 | 1015.6 |
| 20260503150756 | 10 | 177 | 4.8 | 8.0 | 0.00 | 0.00 | 0.00 | 45 | 1016.5 |
| 20260503150252 | 10 | 259 | 4.8 | 8.0 | 0.00 | 0.00 | 0.00 | 41 | 1016.8 |
| 20260503140217 | 8 | 3 | 3.2 | 3.2 | 0.00 | 0.00 | 0.00 | 50 | 1016.9 |
| 20260503131146 | 6 | 185 | 1.6 | 3.2 | 0.00 | 0.00 | 0.00 | 63 | 1017.2 |
| 20260503130643 | 6 | 182 | 1.6 | 3.2 | 0.00 | 0.00 | 0.00 | 63 | 1016.8 |
| 20260503130141 | 6 | 4 | 1.6 | 3.2 | 0.00 | 0.00 | 0.00 | 65 | 1017.0 |
| 20260503120106 | 3 | 13 | 3.2 | 4.8 | 0.00 | 0.00 | 0.00 | 78 | 1016.7 |
| 20260503110533 | 1 | 348 | 0.0 | 0.0 | 0.00 | 0.00 | 0.00 | 87 | 1016.5 |
| 20260503090420 | 1 | 325 | 0.0 | 0.0 | 0.00 | 0.00 | 0.00 | 87 | 1016.0 |
| 20260503081347 | 1 | 326 | 0.0 | 0.0 | 0.00 | 0.00 | 0.00 | 88 | 1016.0 |
| 20260503080843 | 1 | 326 | 0.0 | 0.0 | 0.00 | 0.00 | 0.00 | 88 | 1016.2 |
| 20260503080341 | 1 | 326 | 0.0 | 0.0 | 0.00 | 0.00 | 0.00 | 88 | 1016.0 |
| 20260503072817 | 1 | 326 | 0.0 | 0.0 | 0.00 | 0.00 | 0.00 | 89 | 1015.8 |
| 20260503072314 | 1 | 326 | 0.0 | 0.0 | 0.00 | 0.00 | 0.00 | 89 | 1015.6 |
| 20260503071809 | 1 | 326 | 0.0 | 0.0 | 0.00 | 0.00 | 0.00 | 88 | 1015.8 |
| 20260503071302 | 1 | 326 | 0.0 | 0.0 | 0.00 | 0.00 | 0.00 | 88 | 1016.0 |
| 20260503070758 | 1 | 326 | 0.0 | 0.0 | 0.00 | 0.00 | 0.00 | 88 | 1015.8 |
| 20260503070256 | 1 | 326 | 0.0 | 0.0 | 0.00 | 0.00 | 0.00 | 88 | 1015.7 |
| 20260503060215 | 2 | 328 | 0.0 | 0.0 | 0.00 | 0.00 | 0.00 | 86 | 1015.9 |
| 20260503054702 | 2 | 330 | 0.0 | 0.0 | 0.00 | 0.00 | 0.00 | 86 | 1016.2 |
| 20260503054159 | 2 | 335 | 0.0 | 0.0 | 0.00 | 0.00 | 0.00 | 85 | 1016.3 |
| 20260503053657 | 2 | 338 | 0.0 | 0.0 | 0.00 | 0.00 | 0.00 | 85 | 1016.2 |
| 20260503053155 | 2 | 338 | 0.0 | 0.0 | 0.00 | 0.00 | 0.00 | 85 | 1016.0 |
| 20260503052651 | 2 | 338 | 0.0 | 0.0 | 0.00 | 0.00 | 0.00 | 84 | 1016.2 |
| 20260503052148 | 2 | 338 | 0.0 | 0.0 | 0.00 | 0.00 | 0.00 | 84 | 1016.0 |
| 20260503051643 | 2 | 339 | 0.0 | 0.0 | 0.00 | 0.00 | 0.00 | 84 | 1016.5 |
| 20260503051141 | 2 | 338 | 0.0 | 0.0 | 0.00 | 0.00 | 0.00 | 84 | 1016.2 |
| 20260503050638 | 2 | 341 | 0.0 | 0.0 | 0.00 | 0.00 | 0.00 | 84 | 1016.4 |
| 20260503050134 | 2 | 336 | 0.0 | 0.0 | 0.00 | 0.00 | 0.00 | 84 | 1016.2 |
| 20260503045632 | 2 | 336 | 0.0 | 0.0 | 0.00 | 0.00 | 0.00 | 83 | 1016.2 |
| 20260503045129 | 2 | 336 | 0.0 | 0.0 | 0.00 | 0.00 | 0.00 | 83 | 1016.3 |
| 20260503044625 | 2 | 336 | 0.0 | 0.0 | 0.00 | 0.00 | 0.00 | 83 | 1016.2 |
| 20260503044123 | 2 | 336 | 0.0 | 0.0 | 0.00 | 0.00 | 0.00 | 83 | 1016.4 |
| 20260503043620 | 2 | 336 | 0.0 | 0.0 | 0.00 | 0.00 | 0.00 | 83 | 1016.3 |
| 20260503043116 | 2 | 336 | 0.0 | 0.0 | 0.00 | 0.00 | 0.00 | 82 | 1016.3 |
| 20260503042613 | 2 | 336 | 0.0 | 0.0 | 0.00 | 0.00 | 0.00 | 82 | 1016.4 |
| 20260503042109 | 2 | 336 | 0.0 | 0.0 | 0.00 | 0.00 | 0.00 | 81 | 1016.3 |
| 20260503041606 | 2 | 336 | 0.0 | 0.0 | 0.00 | 0.00 | 0.00 | 81 | 1016.4 |
| 20260503041104 | 2 | 337 | 0.0 | 0.0 | 0.00 | 0.00 | 0.00 | 81 | 1016.4 |
| 20260503040601 | 2 | 336 | 0.0 | 0.0 | 0.00 | 0.00 | 0.00 | 80 | 1016.3 |
| 20260503040058 | 2 | 336 | 0.0 | 0.0 | 0.00 | 0.18 | 0.18 | 80 | 1016.4 |
| 20260503035554 | 2 | 337 | 0.0 | 0.0 | 0.00 | 0.18 | 0.18 | 80 | 1016.4 |
| 20260503035052 | 2 | 337 | 0.0 | 0.0 | 0.00 | 0.18 | 0.18 | 80 | 1016.4 |
| 20260503034549 | 2 | 336 | 0.0 | 0.0 | 0.00 | 0.18 | 0.18 | 80 | 1016.5 |
| 20260503034046 | 2 | 336 | 0.0 | 0.0 | 0.00 | 0.18 | 0.18 | 79 | 1016.4 |
| 20260503033543 | 2 | 337 | 0.0 | 0.0 | 0.00 | 0.18 | 0.18 | 79 | 1016.5 |
| 20260503033041 | 2 | 337 | 0.0 | 0.0 | 0.00 | 0.18 | 0.18 | 79 | 1016.4 |
| 20260503032539 | 2 | 337 | 0.0 | 0.0 | 0.00 | 0.18 | 0.18 | 79 | 1016.5 |
| 20260503032037 | 2 | 336 | 0.0 | 0.0 | 0.00 | 0.18 | 0.18 | 79 | 1016.6 |
| 20260503031535 | 2 | 337 | 0.0 | 0.0 | 0.00 | 0.18 | 0.18 | 78 | 1016.4 |
| 20260503031032 | 2 | 337 | 0.0 | 0.0 | 0.00 | 0.18 | 0.18 | 78 | 1016.5 |
| 20260503030528 | 2 | 336 | 0.0 | 0.0 | 0.00 | 0.18 | 0.18 | 78 | 1016.5 |
| 20260503030025 | 2 | 336 | 0.0 | 0.0 | 0.00 | 0.18 | 0.18 | 78 | 1016.4 |
| 20260503025521 | 2 | 336 | 0.0 | 0.0 | 0.00 | 0.18 | 0.18 | 77 | 1016.6 |
| 20260503025020 | 2 | 336 | 0.0 | 0.0 | 0.00 | 0.18 | 0.18 | 77 | 1016.7 |
| 20260503024515 | 2 | 336 | 0.0 | 0.0 | 0.00 | 0.18 | 0.18 | 76 | 1016.6 |
| 20260503024013 | 2 | 337 | 0.0 | 0.0 | 0.00 | 0.18 | 0.18 | 76 | 1016.6 |
| 20260503023509 | 2 | 336 | 0.0 | 0.0 | 0.00 | 0.18 | 0.18 | 76 | 1016.7 |
| 20260503023007 | 2 | 336 | 0.0 | 0.0 | 0.00 | 0.18 | 0.18 | 76 | 1016.7 |
| 20260503022502 | 2 | 337 | 0.0 | 0.0 | 0.00 | 0.18 | 0.18 | 75 | 1016.8 |
| 20260503021957 | 2 | 337 | 0.0 | 0.0 | 0.00 | 0.18 | 0.18 | 75 | 1016.5 |
| 20260503021454 | 3 | 326 | 0.0 | 0.0 | 0.00 | 0.18 | 0.18 | 75 | 1017.0 |
| 20260503020951 | 3 | 341 | 0.0 | 0.0 | 0.00 | 0.18 | 0.18 | 75 | 1016.8 |
| 20260503020449 | 3 | 341 | 0.0 | 0.0 | 0.00 | 0.18 | 0.18 | 75 | 1016.7 |
| 20260503015945 | 3 | 341 | 0.0 | 0.0 | 0.00 | 0.18 | 0.18 | 74 | 1016.8 |
| 20260503015442 | 3 | 341 | 0.0 | 0.0 | 0.00 | 0.18 | 0.18 | 73 | 1016.6 |
| 20260503014938 | 3 | 341 | 0.0 | 0.0 | 0.00 | 0.18 | 0.18 | 72 | 1016.6 |